Year,Month,Day,Hour,Minute,Value (Times are PST for temperature in C)
2006,06,26,00,00,17.90
2006,06,26,00,01,17.80
2006,06,26,00,02,17.80
2006,06,26,00,03,17.80
2006,06,26,00,04,17.80
2006,06,26,00,05,17.80
2006,06,26,00,06,17.70
2006,06,26,00,07,17.70
2006,06,26,00,08,17.70
2006,06,26,00,09,17.70
2006,06,26,00,10,17.60
2006,06,26,00,11,17.60
2006,06,26,00,12,17.60
2006,06,26,00,13,17.60
2006,06,26,00,14,17.50
2006,06,26,00,15,17.50
2006,06,26,00,16,17.50
2006,06,26,00,17,17.40
2006,06,26,00,18,17.40
2006,06,26,00,19,17.40
2006,06,26,00,20,17.30
2006,06,26,00,21,17.30
2006,06,26,00,22,17.30
2006,06,26,00,23,17.30
2006,06,26,00,24,17.30
2006,06,26,00,25,17.30
2006,06,26,00,26,17.30
2006,06,26,00,27,17.30
2006,06,26,00,28,17.20
2006,06,26,00,29,17.20
2006,06,26,00,30,17.20
2006,06,26,00,31,17.20
2006,06,26,00,32,17.20
2006,06,26,00,33,17.20
2006,06,26,00,34,17.20
2006,06,26,00,35,17.10
2006,06,26,00,36,17.10
2006,06,26,00,37,17.10
2006,06,26,00,38,17.10
2006,06,26,00,39,17.10
2006,06,26,00,40,17.10
2006,06,26,00,41,17.10
2006,06,26,00,42,17.10
2006,06,26,00,43,17.00
2006,06,26,00,44,17.00
2006,06,26,00,45,17.00
2006,06,26,00,46,17.00
2006,06,26,00,47,16.90
2006,06,26,00,48,16.90
2006,06,26,00,49,16.90
2006,06,26,00,50,16.90
2006,06,26,00,51,16.80
2006,06,26,00,52,16.80
2006,06,26,00,53,16.80
2006,06,26,00,54,16.70
2006,06,26,00,55,16.70
2006,06,26,00,56,16.70
2006,06,26,00,57,16.70
2006,06,26,00,58,16.70
2006,06,26,00,59,16.70
2006,06,26,01,00,16.70
2006,06,26,01,01,16.70
2006,06,26,01,02,16.70
2006,06,26,01,03,16.70
2006,06,26,01,04,16.70
2006,06,26,01,05,16.70
2006,06,26,01,06,16.70
2006,06,26,01,07,16.70
2006,06,26,01,08,16.70
2006,06,26,01,09,16.80
2006,06,26,01,10,16.80
2006,06,26,01,11,16.80
2006,06,26,01,12,16.80
2006,06,26,01,13,16.80
2006,06,26,01,14,16.80
2006,06,26,01,15,16.90
2006,06,26,01,16,16.90
2006,06,26,01,17,16.90
2006,06,26,01,18,16.90
2006,06,26,01,19,16.90
2006,06,26,01,20,16.90
2006,06,26,01,21,16.90
2006,06,26,01,22,16.90
2006,06,26,01,23,16.90
2006,06,26,01,24,17.00
2006,06,26,01,25,17.00
2006,06,26,01,26,17.00
2006,06,26,01,27,17.00
2006,06,26,01,28,17.00
2006,06,26,01,29,17.00
2006,06,26,01,30,17.00
2006,06,26,01,31,17.00
2006,06,26,01,32,16.90
2006,06,26,01,33,16.90
2006,06,26,01,34,16.90
2006,06,26,01,35,16.90
2006,06,26,01,36,16.90
2006,06,26,01,37,16.90
2006,06,26,01,38,16.90
2006,06,26,01,39,16.90
2006,06,26,01,40,16.90
2006,06,26,01,41,17.00
2006,06,26,01,42,17.00
2006,06,26,01,43,17.00
2006,06,26,01,44,17.00
2006,06,26,01,45,17.10
2006,06,26,01,46,17.10
2006,06,26,01,47,17.10
2006,06,26,01,48,17.10
2006,06,26,01,49,17.20
2006,06,26,01,50,17.20
2006,06,26,01,51,17.20
2006,06,26,01,52,17.20
2006,06,26,01,53,17.30
2006,06,26,01,54,17.30
2006,06,26,01,55,17.30
2006,06,26,01,56,17.30
2006,06,26,01,57,17.30
2006,06,26,01,58,17.30
2006,06,26,01,59,17.30
2006,06,26,02,00,17.30
2006,06,26,02,01,17.30
2006,06,26,02,02,17.30
2006,06,26,02,03,17.30
2006,06,26,02,04,17.30
2006,06,26,02,05,17.30
2006,06,26,02,06,17.30
2006,06,26,02,07,17.30
2006,06,26,02,08,17.30
2006,06,26,02,09,17.30
2006,06,26,02,10,17.30
2006,06,26,02,11,17.20
2006,06,26,02,12,17.20
2006,06,26,02,13,17.20
2006,06,26,02,14,17.20
2006,06,26,02,15,17.10
2006,06,26,02,16,17.10
2006,06,26,02,17,17.00
2006,06,26,02,18,16.90
2006,06,26,02,19,16.80
2006,06,26,02,20,16.70
2006,06,26,02,21,16.70
2006,06,26,02,22,16.60
2006,06,26,02,23,16.50
2006,06,26,02,24,16.40
2006,06,26,02,25,16.40
2006,06,26,02,26,16.30
2006,06,26,02,27,16.30
2006,06,26,02,28,16.20
2006,06,26,02,29,16.20
2006,06,26,02,30,16.10
2006,06,26,02,31,16.10
2006,06,26,02,32,16.10
2006,06,26,02,33,16.00
2006,06,26,02,34,15.90
2006,06,26,02,35,15.90
2006,06,26,02,36,15.80
2006,06,26,02,37,15.80
2006,06,26,02,38,15.80
2006,06,26,02,39,15.80
2006,06,26,02,40,15.70
2006,06,26,02,41,15.70
2006,06,26,02,42,15.70
2006,06,26,02,43,15.60
2006,06,26,02,44,15.60
2006,06,26,02,45,15.60
2006,06,26,02,46,15.60
2006,06,26,02,47,15.60
2006,06,26,02,48,15.60
2006,06,26,02,49,15.60
2006,06,26,02,50,15.60
2006,06,26,02,51,15.60
2006,06,26,02,52,15.60
2006,06,26,02,53,15.60
2006,06,26,02,54,15.60
2006,06,26,02,55,15.50
2006,06,26,02,56,15.50
2006,06,26,02,57,15.50
2006,06,26,02,58,15.50
2006,06,26,02,59,15.50
2006,06,26,03,00,15.50
2006,06,26,03,01,15.50
2006,06,26,03,02,15.50
2006,06,26,03,03,15.50
2006,06,26,03,04,15.40
2006,06,26,03,05,15.40
2006,06,26,03,06,15.40
2006,06,26,03,07,15.40
2006,06,26,03,08,15.40
2006,06,26,03,09,15.40
2006,06,26,03,10,15.40
2006,06,26,03,11,15.30
2006,06,26,03,12,15.30
2006,06,26,03,13,15.30
2006,06,26,03,14,15.30
2006,06,26,03,15,15.30
2006,06,26,03,16,15.30
2006,06,26,03,17,15.30
2006,06,26,03,18,15.30
2006,06,26,03,19,15.30
2006,06,26,03,20,15.20
2006,06,26,03,21,15.20
2006,06,26,03,22,15.20
2006,06,26,03,23,15.20
2006,06,26,03,24,15.10
2006,06,26,03,25,15.10
2006,06,26,03,26,15.10
2006,06,26,03,27,15.10
2006,06,26,03,28,15.00
2006,06,26,03,29,15.00
2006,06,26,03,30,15.00
2006,06,26,03,31,15.00
2006,06,26,03,32,15.00
2006,06,26,03,33,15.00
2006,06,26,03,34,15.00
2006,06,26,03,35,15.00
2006,06,26,03,36,15.00
2006,06,26,03,37,15.00
2006,06,26,03,38,15.00
2006,06,26,03,39,15.00
2006,06,26,03,40,14.90
2006,06,26,03,41,14.90
2006,06,26,03,42,14.90
2006,06,26,03,43,14.90
2006,06,26,03,44,14.80
2006,06,26,03,45,14.80
2006,06,26,03,46,14.80
2006,06,26,03,47,14.80
2006,06,26,03,48,14.80
2006,06,26,03,49,14.80
2006,06,26,03,50,14.80
2006,06,26,03,51,14.80
2006,06,26,03,52,14.80
2006,06,26,03,53,14.80
2006,06,26,03,54,14.80
2006,06,26,03,55,14.80
2006,06,26,03,56,14.80
2006,06,26,03,57,14.90
2006,06,26,03,58,14.90
2006,06,26,03,59,14.80
2006,06,26,04,00,14.80
2006,06,26,04,01,14.80
2006,06,26,04,02,14.80
2006,06,26,04,03,14.80
2006,06,26,04,04,14.80
2006,06,26,04,05,14.80
2006,06,26,04,06,14.80
2006,06,26,04,07,14.70
2006,06,26,04,08,14.60
2006,06,26,04,09,14.60
2006,06,26,04,10,14.50
2006,06,26,04,11,14.40
2006,06,26,04,12,14.40
2006,06,26,04,13,14.40
2006,06,26,04,14,14.30
2006,06,26,04,15,14.30
2006,06,26,04,16,14.30
2006,06,26,04,17,14.30
2006,06,26,04,18,14.20
2006,06,26,04,19,14.20
2006,06,26,04,20,14.20
2006,06,26,04,21,14.20
2006,06,26,04,22,14.20
2006,06,26,04,23,14.20
2006,06,26,04,24,14.20
2006,06,26,04,25,14.20
2006,06,26,04,26,14.20
2006,06,26,04,27,14.20
2006,06,26,04,28,14.20
2006,06,26,04,29,14.20
2006,06,26,04,30,14.20
2006,06,26,04,31,14.20
2006,06,26,04,32,14.20
2006,06,26,04,33,14.20
2006,06,26,04,34,14.20
2006,06,26,04,35,14.30
2006,06,26,04,36,14.30
2006,06,26,04,37,14.30
2006,06,26,04,38,14.30
2006,06,26,04,39,14.20
2006,06,26,04,40,14.20
2006,06,26,04,41,14.20
2006,06,26,04,42,14.20
2006,06,26,04,43,14.20
2006,06,26,04,44,14.20
2006,06,26,04,45,14.20
2006,06,26,04,46,14.20
2006,06,26,04,47,14.20
2006,06,26,04,48,14.20
2006,06,26,04,49,14.20
2006,06,26,04,50,14.20
2006,06,26,04,51,14.20
2006,06,26,04,52,14.20
2006,06,26,04,53,14.10
2006,06,26,04,54,14.10
2006,06,26,04,55,14.00
2006,06,26,04,56,14.00
2006,06,26,04,57,13.90
2006,06,26,04,58,13.90
2006,06,26,04,59,13.90
2006,06,26,05,00,13.90
2006,06,26,05,01,13.90
2006,06,26,05,02,13.90
2006,06,26,05,03,13.90
2006,06,26,05,04,13.90
2006,06,26,05,05,13.90
2006,06,26,05,06,13.90
2006,06,26,05,07,13.80
2006,06,26,05,08,13.80
2006,06,26,05,09,13.80
2006,06,26,05,10,13.80
2006,06,26,05,11,13.80
2006,06,26,05,12,13.80
2006,06,26,05,13,13.80
2006,06,26,05,14,13.80
2006,06,26,05,15,13.80
2006,06,26,05,16,13.80
2006,06,26,05,17,13.80
2006,06,26,05,18,13.80
2006,06,26,05,19,13.80
2006,06,26,05,20,13.80
2006,06,26,05,21,13.80
2006,06,26,05,22,13.80
2006,06,26,05,23,13.80
2006,06,26,05,24,13.80
2006,06,26,05,25,13.70
2006,06,26,05,26,13.70
2006,06,26,05,27,13.70
2006,06,26,05,28,13.70
2006,06,26,05,29,13.70
2006,06,26,05,30,13.70
2006,06,26,05,31,13.70
2006,06,26,05,32,13.70
2006,06,26,05,33,13.70
2006,06,26,05,34,13.70
2006,06,26,05,35,13.60
2006,06,26,05,36,13.60
2006,06,26,05,37,13.60
2006,06,26,05,38,13.60
2006,06,26,05,39,13.60
2006,06,26,05,40,13.50
2006,06,26,05,41,13.50
2006,06,26,05,42,13.50
2006,06,26,05,43,13.50
2006,06,26,05,44,13.50
2006,06,26,05,45,13.50
2006,06,26,05,46,13.50
2006,06,26,05,47,13.50
2006,06,26,05,48,13.50
2006,06,26,05,49,13.40
2006,06,26,05,50,13.40
2006,06,26,05,51,13.40
2006,06,26,05,52,13.40
2006,06,26,05,53,13.40
2006,06,26,05,54,13.40
2006,06,26,05,55,13.40
2006,06,26,05,56,13.40
2006,06,26,05,57,13.40
2006,06,26,05,58,13.50
2006,06,26,05,59,13.50
2006,06,26,06,00,13.50
2006,06,26,06,01,13.60
2006,06,26,06,02,13.60
2006,06,26,06,03,13.70
2006,06,26,06,04,13.70
2006,06,26,06,05,13.70
2006,06,26,06,06,13.70
2006,06,26,06,07,13.80
2006,06,26,06,08,13.80
2006,06,26,06,09,13.90
2006,06,26,06,10,13.90
2006,06,26,06,11,14.00
2006,06,26,06,12,14.00
2006,06,26,06,13,14.10
2006,06,26,06,14,14.10
2006,06,26,06,15,14.20
2006,06,26,06,16,14.20
2006,06,26,06,17,14.30
2006,06,26,06,18,14.40
2006,06,26,06,19,14.50
2006,06,26,06,20,14.60
2006,06,26,06,21,14.70
2006,06,26,06,22,14.80
2006,06,26,06,23,14.80
2006,06,26,06,24,14.90
2006,06,26,06,25,14.90
2006,06,26,06,26,14.90
2006,06,26,06,27,15.00
2006,06,26,06,28,15.00
2006,06,26,06,29,15.00
2006,06,26,06,30,15.10
2006,06,26,06,31,15.10
2006,06,26,06,32,15.20
2006,06,26,06,33,15.30
2006,06,26,06,34,15.40
2006,06,26,06,35,15.50
2006,06,26,06,36,15.50
2006,06,26,06,37,15.60
2006,06,26,06,38,15.70
2006,06,26,06,39,15.80
2006,06,26,06,40,15.80
2006,06,26,06,41,15.90
2006,06,26,06,42,15.90
2006,06,26,06,43,16.00
2006,06,26,06,44,16.10
2006,06,26,06,45,16.10
2006,06,26,06,46,16.20
2006,06,26,06,47,16.30
2006,06,26,06,48,16.30
2006,06,26,06,49,16.40
2006,06,26,06,50,16.40
2006,06,26,06,51,16.50
2006,06,26,06,52,16.60
2006,06,26,06,53,16.70
2006,06,26,06,54,16.70
2006,06,26,06,55,16.80
2006,06,26,06,56,16.90
2006,06,26,06,57,17.00
2006,06,26,06,58,17.00
2006,06,26,06,59,17.10
2006,06,26,07,00,17.10
2006,06,26,07,01,17.20
2006,06,26,07,02,17.20
2006,06,26,07,03,17.20
2006,06,26,07,04,17.20
2006,06,26,07,05,17.20
2006,06,26,07,06,17.20
2006,06,26,07,07,17.20
2006,06,26,07,08,17.20
2006,06,26,07,09,17.30
2006,06,26,07,10,17.30
2006,06,26,07,11,17.30
2006,06,26,07,12,17.40
2006,06,26,07,13,17.50
2006,06,26,07,14,17.60
2006,06,26,07,15,17.70
2006,06,26,07,16,17.80
2006,06,26,07,17,17.90
2006,06,26,07,18,18.00
2006,06,26,07,19,18.10
2006,06,26,07,20,18.20
2006,06,26,07,21,18.20
2006,06,26,07,22,18.30
2006,06,26,07,23,18.40
2006,06,26,07,24,18.40
2006,06,26,07,25,18.50
2006,06,26,07,26,18.60
2006,06,26,07,27,18.60
2006,06,26,07,28,18.70
2006,06,26,07,29,18.70
2006,06,26,07,30,18.80
2006,06,26,07,31,18.90
2006,06,26,07,32,18.90
2006,06,26,07,33,19.10
2006,06,26,07,34,19.10
2006,06,26,07,35,19.30
2006,06,26,07,36,19.40
2006,06,26,07,37,19.60
2006,06,26,07,38,19.70
2006,06,26,07,39,19.80
2006,06,26,07,40,20.00
2006,06,26,07,41,20.20
2006,06,26,07,42,20.30
2006,06,26,07,43,20.50
2006,06,26,07,44,20.60
2006,06,26,07,45,20.70
2006,06,26,07,46,20.80
2006,06,26,07,47,21.00
2006,06,26,07,48,21.10
2006,06,26,07,49,21.20
2006,06,26,07,50,21.30
2006,06,26,07,51,21.40
2006,06,26,07,52,21.60
2006,06,26,07,53,21.60
2006,06,26,07,54,21.70
2006,06,26,07,55,21.80
2006,06,26,07,56,21.90
2006,06,26,07,57,21.90
2006,06,26,07,58,22.00
2006,06,26,07,59,22.00
2006,06,26,08,00,22.00
2006,06,26,08,01,22.00
2006,06,26,08,02,22.10
2006,06,26,08,03,22.10
2006,06,26,08,04,22.10
2006,06,26,08,05,22.10
2006,06,26,08,06,22.20
2006,06,26,08,07,22.30
2006,06,26,08,08,22.40
2006,06,26,08,09,22.40
2006,06,26,08,10,22.40
2006,06,26,08,11,22.40
2006,06,26,08,12,22.50
2006,06,26,08,13,22.50
2006,06,26,08,14,22.60
2006,06,26,08,15,22.60
2006,06,26,08,16,22.60
2006,06,26,08,17,22.70
2006,06,26,08,18,22.70
2006,06,26,08,19,22.70
2006,06,26,08,20,22.80
2006,06,26,08,21,22.90
2006,06,26,08,22,22.90
2006,06,26,08,23,23.00
2006,06,26,08,24,23.10
2006,06,26,08,25,23.20
2006,06,26,08,26,23.30
2006,06,26,08,27,23.30
2006,06,26,08,28,23.40
2006,06,26,08,29,23.40
2006,06,26,08,30,23.50
2006,06,26,08,31,23.60
2006,06,26,08,32,23.60
2006,06,26,08,33,23.70
2006,06,26,08,34,23.70
2006,06,26,08,35,23.70
2006,06,26,08,36,23.70
2006,06,26,08,37,23.60
2006,06,26,08,38,23.60
2006,06,26,08,39,23.60
2006,06,26,08,40,23.60
2006,06,26,08,41,23.70
2006,06,26,08,42,23.70
2006,06,26,08,43,23.70
2006,06,26,08,44,23.70
2006,06,26,08,45,23.70
2006,06,26,08,46,23.70
2006,06,26,08,47,23.60
2006,06,26,08,48,23.60
2006,06,26,08,49,23.60
2006,06,26,08,50,23.60
2006,06,26,08,51,23.60
2006,06,26,08,52,23.50
2006,06,26,08,53,23.40
2006,06,26,08,54,23.40
2006,06,26,08,55,23.30
2006,06,26,08,56,23.30
2006,06,26,08,57,23.30
2006,06,26,08,58,23.30
2006,06,26,08,59,23.30
2006,06,26,09,00,23.30
2006,06,26,09,01,23.30
2006,06,26,09,02,23.40
2006,06,26,09,03,23.50
2006,06,26,09,04,23.60
2006,06,26,09,05,23.70
2006,06,26,09,06,23.80
2006,06,26,09,07,23.90
2006,06,26,09,08,23.90
2006,06,26,09,09,23.90
2006,06,26,09,10,23.90
2006,06,26,09,11,23.90
2006,06,26,09,12,23.90
2006,06,26,09,13,23.90
2006,06,26,09,14,23.90
2006,06,26,09,15,23.90
2006,06,26,09,16,24.10
2006,06,26,09,17,24.10
2006,06,26,09,18,24.20
2006,06,26,09,19,24.30
2006,06,26,09,20,24.50
2006,06,26,09,21,24.50
2006,06,26,09,22,24.60
2006,06,26,09,23,24.60
2006,06,26,09,24,24.50
2006,06,26,09,25,24.50
2006,06,26,09,26,24.50
2006,06,26,09,27,24.40
2006,06,26,09,28,24.40
2006,06,26,09,29,24.30
2006,06,26,09,30,24.30
2006,06,26,09,31,24.30
2006,06,26,09,32,24.30
2006,06,26,09,33,24.30
2006,06,26,09,34,24.30
2006,06,26,09,35,24.30
2006,06,26,09,36,24.40
2006,06,26,09,37,24.50
2006,06,26,09,38,24.50
2006,06,26,09,39,24.60
2006,06,26,09,40,24.60
2006,06,26,09,41,24.60
2006,06,26,09,42,24.60
2006,06,26,09,43,24.60
2006,06,26,09,44,24.60
2006,06,26,09,45,24.60
2006,06,26,09,46,24.50
2006,06,26,09,47,24.50
2006,06,26,09,48,24.60
2006,06,26,09,49,24.70
2006,06,26,09,50,24.70
2006,06,26,09,51,24.60
2006,06,26,09,52,24.60
2006,06,26,09,53,24.50
2006,06,26,09,54,24.40
2006,06,26,09,55,24.40
2006,06,26,09,56,24.30
2006,06,26,09,57,24.30
2006,06,26,09,58,24.30
2006,06,26,09,59,24.40
2006,06,26,10,00,24.40
2006,06,26,10,01,24.40
2006,06,26,10,02,24.40
2006,06,26,10,03,24.30
2006,06,26,10,04,24.30
2006,06,26,10,05,24.20
2006,06,26,10,06,24.10
2006,06,26,10,07,24.10
2006,06,26,10,08,24.10
2006,06,26,10,09,24.10
2006,06,26,10,10,24.00
2006,06,26,10,11,24.00
2006,06,26,10,12,24.10
2006,06,26,10,13,24.00
2006,06,26,10,14,24.10
2006,06,26,10,15,24.10
2006,06,26,10,16,24.10
2006,06,26,10,17,24.20
2006,06,26,10,18,24.30
2006,06,26,10,19,24.40
2006,06,26,10,20,24.40
2006,06,26,10,21,24.40
2006,06,26,10,22,24.40
2006,06,26,10,23,24.20
2006,06,26,10,24,24.30
2006,06,26,10,25,24.40
2006,06,26,10,26,24.40
2006,06,26,10,27,24.50
2006,06,26,10,28,24.60
2006,06,26,10,29,24.60
2006,06,26,10,30,24.60
2006,06,26,10,31,24.70
2006,06,26,10,32,24.70
2006,06,26,10,33,24.70
2006,06,26,10,34,24.70
2006,06,26,10,35,24.60
2006,06,26,10,36,24.50
2006,06,26,10,37,24.40
2006,06,26,10,38,24.40
2006,06,26,10,39,24.40
2006,06,26,10,40,24.30
2006,06,26,10,41,24.30
2006,06,26,10,42,24.30
2006,06,26,10,43,24.20
2006,06,26,10,44,24.30
2006,06,26,10,45,24.40
2006,06,26,10,46,24.40
2006,06,26,10,47,24.50
2006,06,26,10,48,24.50
2006,06,26,10,49,24.50
2006,06,26,10,50,24.50
2006,06,26,10,51,24.60
2006,06,26,10,52,24.60
2006,06,26,10,53,24.70
2006,06,26,10,54,24.80
2006,06,26,10,55,24.90
2006,06,26,10,56,25.00
2006,06,26,10,57,25.00
2006,06,26,10,58,24.90
2006,06,26,10,59,24.90
2006,06,26,11,00,25.00
2006,06,26,11,01,25.10
2006,06,26,11,02,25.20
2006,06,26,11,03,25.10
2006,06,26,11,04,25.10
2006,06,26,11,05,25.10
2006,06,26,11,06,25.10
2006,06,26,11,07,25.10
2006,06,26,11,08,25.20
2006,06,26,11,09,25.30
2006,06,26,11,10,25.30
2006,06,26,11,11,25.20
2006,06,26,11,12,25.10
2006,06,26,11,13,25.10
2006,06,26,11,14,25.10
2006,06,26,11,15,25.00
2006,06,26,11,16,24.90
2006,06,26,11,17,25.00
2006,06,26,11,18,25.00
2006,06,26,11,19,25.10
2006,06,26,11,20,25.10
2006,06,26,11,21,25.10
2006,06,26,11,22,25.10
2006,06,26,11,23,25.10
2006,06,26,11,24,25.00
2006,06,26,11,25,25.00
2006,06,26,11,26,25.00
2006,06,26,11,27,24.90
2006,06,26,11,28,24.90
2006,06,26,11,29,24.90
2006,06,26,11,30,25.10
2006,06,26,11,31,25.20
2006,06,26,11,32,25.30
2006,06,26,11,33,25.50
2006,06,26,11,34,25.70
2006,06,26,11,35,25.80
2006,06,26,11,36,25.90
2006,06,26,11,37,25.90
2006,06,26,11,38,25.90
2006,06,26,11,39,26.00
2006,06,26,11,40,26.20
2006,06,26,11,41,26.20
2006,06,26,11,42,26.10
2006,06,26,11,43,26.10
2006,06,26,11,44,26.00
2006,06,26,11,45,26.00
2006,06,26,11,46,25.90
2006,06,26,11,47,25.80
2006,06,26,11,48,25.80
2006,06,26,11,49,25.80
2006,06,26,11,50,25.90
2006,06,26,11,51,25.90
2006,06,26,11,52,26.00
2006,06,26,11,53,26.20
2006,06,26,11,54,26.30
2006,06,26,11,55,26.30
2006,06,26,11,56,26.30
2006,06,26,11,57,26.40
2006,06,26,11,58,26.50
2006,06,26,11,59,26.60
2006,06,26,12,00,26.70
2006,06,26,12,01,26.80
2006,06,26,12,02,26.90
2006,06,26,12,03,26.90
2006,06,26,12,04,27.10
2006,06,26,12,05,27.10
2006,06,26,12,06,27.10
2006,06,26,12,07,27.10
2006,06,26,12,08,27.10
2006,06,26,12,09,27.10
2006,06,26,12,10,26.90
2006,06,26,12,11,26.70
2006,06,26,12,12,26.50
2006,06,26,12,13,26.40
2006,06,26,12,14,26.40
2006,06,26,12,15,26.20
2006,06,26,12,16,26.20
2006,06,26,12,17,26.20
2006,06,26,12,18,26.20
2006,06,26,12,19,26.20
2006,06,26,12,20,26.20
2006,06,26,12,21,26.40
2006,06,26,12,22,26.40
2006,06,26,12,23,26.40
2006,06,26,12,24,26.20
2006,06,26,12,25,26.10
2006,06,26,12,26,26.10
2006,06,26,12,27,26.10
2006,06,26,12,28,26.10
2006,06,26,12,29,26.10
2006,06,26,12,30,26.20
2006,06,26,12,31,26.20
2006,06,26,12,32,26.20
2006,06,26,12,33,26.40
2006,06,26,12,34,26.50
2006,06,26,12,35,26.60
2006,06,26,12,36,26.70
2006,06,26,12,37,26.70
2006,06,26,12,38,26.60
2006,06,26,12,39,26.60
2006,06,26,12,40,26.70
2006,06,26,12,41,26.70
2006,06,26,12,42,26.70
2006,06,26,12,43,26.70
2006,06,26,12,44,26.60
2006,06,26,12,45,26.60
2006,06,26,12,46,26.70
2006,06,26,12,47,26.70
2006,06,26,12,48,26.80
2006,06,26,12,49,26.90
2006,06,26,12,50,27.10
2006,06,26,12,51,27.20
2006,06,26,12,52,27.20
2006,06,26,12,53,27.20
2006,06,26,12,54,27.20
2006,06,26,12,55,27.20
2006,06,26,12,56,27.20
2006,06,26,12,57,27.20
2006,06,26,12,58,27.20
2006,06,26,12,59,27.30
2006,06,26,13,00,27.30
2006,06,26,13,01,27.50
2006,06,26,13,02,27.70
2006,06,26,13,03,27.80
2006,06,26,13,04,27.80
2006,06,26,13,05,27.90
2006,06,26,13,06,27.80
2006,06,26,13,07,27.80
2006,06,26,13,08,27.80
2006,06,26,13,09,27.80
2006,06,26,13,10,27.70
2006,06,26,13,11,27.70
2006,06,26,13,12,27.70
2006,06,26,13,13,27.80
2006,06,26,13,14,27.80
2006,06,26,13,15,27.90
2006,06,26,13,16,27.90
2006,06,26,13,17,27.90
2006,06,26,13,18,27.90
2006,06,26,13,19,27.90
2006,06,26,13,20,27.90
2006,06,26,13,21,27.90
2006,06,26,13,22,27.90
2006,06,26,13,23,27.80
2006,06,26,13,24,27.70
2006,06,26,13,25,27.70
2006,06,26,13,26,27.70
2006,06,26,13,27,27.70
2006,06,26,13,28,27.60
2006,06,26,13,29,27.60
2006,06,26,13,30,27.60
2006,06,26,13,31,27.60
2006,06,26,13,32,27.70
2006,06,26,13,33,27.80
2006,06,26,13,34,28.00
2006,06,26,13,35,28.10
2006,06,26,13,36,28.10
2006,06,26,13,37,28.20
2006,06,26,13,38,28.30
2006,06,26,13,39,28.40
2006,06,26,13,40,28.40
2006,06,26,13,41,28.40
2006,06,26,13,42,28.40
2006,06,26,13,43,28.30
2006,06,26,13,44,28.20
2006,06,26,13,45,28.10
2006,06,26,13,46,28.10
2006,06,26,13,47,28.10
2006,06,26,13,48,28.00
2006,06,26,13,49,28.00
2006,06,26,13,50,27.90
2006,06,26,13,51,27.80
2006,06,26,13,52,27.80
2006,06,26,13,53,27.70
2006,06,26,13,54,27.70
2006,06,26,13,55,27.70
2006,06,26,13,56,27.70
2006,06,26,13,57,27.60
2006,06,26,13,58,27.60
2006,06,26,13,59,27.60
2006,06,26,14,00,27.60
2006,06,26,14,01,27.60
2006,06,26,14,02,27.60
2006,06,26,14,03,27.70
2006,06,26,14,04,27.70
2006,06,26,14,05,27.70
2006,06,26,14,06,27.80
2006,06,26,14,07,27.80
2006,06,26,14,08,27.90
2006,06,26,14,09,28.00
2006,06,26,14,10,28.10
2006,06,26,14,11,28.20
2006,06,26,14,12,28.30
2006,06,26,14,13,28.40
2006,06,26,14,14,28.40
2006,06,26,14,15,28.40
2006,06,26,14,16,28.50
2006,06,26,14,17,28.60
2006,06,26,14,18,28.60
2006,06,26,14,19,28.70
2006,06,26,14,20,28.60
2006,06,26,14,21,28.60
2006,06,26,14,22,28.60
2006,06,26,14,23,28.40
2006,06,26,14,24,28.30
2006,06,26,14,25,28.40
2006,06,26,14,26,28.50
2006,06,26,14,27,28.60
2006,06,26,14,28,28.60
2006,06,26,14,29,28.60
2006,06,26,14,30,28.60
2006,06,26,14,31,28.40
2006,06,26,14,32,28.30
2006,06,26,14,33,28.20
2006,06,26,14,34,28.20
2006,06,26,14,35,28.20
2006,06,26,14,36,28.30
2006,06,26,14,37,28.30
2006,06,26,14,38,28.30
2006,06,26,14,39,28.40
2006,06,26,14,40,28.50
2006,06,26,14,41,28.60
2006,06,26,14,42,28.70
2006,06,26,14,43,28.80
2006,06,26,14,44,28.80
2006,06,26,14,45,28.90
2006,06,26,14,46,28.90
2006,06,26,14,47,29.00
2006,06,26,14,48,29.10
2006,06,26,14,49,28.90
2006,06,26,14,50,28.90
2006,06,26,14,51,28.90
2006,06,26,14,52,28.90
2006,06,26,14,53,28.90
2006,06,26,14,54,28.90
2006,06,26,14,55,28.90
2006,06,26,14,56,28.90
2006,06,26,14,57,28.90
2006,06,26,14,58,28.90
2006,06,26,14,59,28.90
2006,06,26,15,00,28.80
2006,06,26,15,01,28.80
2006,06,26,15,02,28.80
2006,06,26,15,03,28.80
2006,06,26,15,04,28.90
2006,06,26,15,05,28.90
2006,06,26,15,06,28.90
2006,06,26,15,07,28.80
2006,06,26,15,08,28.90
2006,06,26,15,09,28.90
2006,06,26,15,10,28.90
2006,06,26,15,11,28.90
2006,06,26,15,12,29.00
2006,06,26,15,13,29.10
2006,06,26,15,14,29.20
2006,06,26,15,15,29.20
2006,06,26,15,16,29.20
2006,06,26,15,17,29.30
2006,06,26,15,18,29.20
2006,06,26,15,19,29.10
2006,06,26,15,20,29.10
2006,06,26,15,21,29.10
2006,06,26,15,22,29.10
2006,06,26,15,23,29.00
2006,06,26,15,24,28.90
2006,06,26,15,25,28.80
2006,06,26,15,26,28.80
2006,06,26,15,27,28.80
2006,06,26,15,28,28.80
2006,06,26,15,29,28.90
2006,06,26,15,30,28.90
2006,06,26,15,31,28.90
2006,06,26,15,32,28.90
2006,06,26,15,33,29.00
2006,06,26,15,34,29.10
2006,06,26,15,35,29.10
2006,06,26,15,36,29.00
2006,06,26,15,37,28.90
2006,06,26,15,38,28.80
2006,06,26,15,39,28.70
2006,06,26,15,40,28.70
2006,06,26,15,41,28.80
2006,06,26,15,42,28.80
2006,06,26,15,43,28.90
2006,06,26,15,44,28.90
2006,06,26,15,45,29.00
2006,06,26,15,46,29.10
2006,06,26,15,47,29.20
2006,06,26,15,48,29.20
2006,06,26,15,49,29.20
2006,06,26,15,50,29.10
2006,06,26,15,51,29.10
2006,06,26,15,52,29.20
2006,06,26,15,53,29.20
2006,06,26,15,54,29.40
2006,06,26,15,55,29.50
2006,06,26,15,56,29.60
2006,06,26,15,57,29.60
2006,06,26,15,58,29.60
2006,06,26,15,59,29.50
2006,06,26,16,00,29.60
2006,06,26,16,01,29.50
2006,06,26,16,02,29.50
2006,06,26,16,03,29.50
2006,06,26,16,04,29.50
2006,06,26,16,05,29.60
2006,06,26,16,06,29.60
2006,06,26,16,07,29.60
2006,06,26,16,08,29.70
2006,06,26,16,09,29.60
2006,06,26,16,10,29.60
2006,06,26,16,11,29.70
2006,06,26,16,12,29.70
2006,06,26,16,13,29.70
2006,06,26,16,14,29.80
2006,06,26,16,15,29.90
2006,06,26,16,16,30.00
2006,06,26,16,17,30.10
2006,06,26,16,18,30.10
2006,06,26,16,19,30.30
2006,06,26,16,20,30.30
2006,06,26,16,21,30.30
2006,06,26,16,22,30.20
2006,06,26,16,23,30.10
2006,06,26,16,24,30.10
2006,06,26,16,25,30.10
2006,06,26,16,26,30.00
2006,06,26,16,27,29.90
2006,06,26,16,28,29.90
2006,06,26,16,29,29.90
2006,06,26,16,30,29.90
2006,06,26,16,31,29.90
2006,06,26,16,32,29.90
2006,06,26,16,33,29.90
2006,06,26,16,34,29.90
2006,06,26,16,35,29.90
2006,06,26,16,36,29.90
2006,06,26,16,37,29.90
2006,06,26,16,38,30.00
2006,06,26,16,39,30.10
2006,06,26,16,40,30.20
2006,06,26,16,41,30.30
2006,06,26,16,42,30.30
2006,06,26,16,43,30.30
2006,06,26,16,44,30.30
2006,06,26,16,45,30.20
2006,06,26,16,46,30.10
2006,06,26,16,47,30.10
2006,06,26,16,48,30.10
2006,06,26,16,49,30.10
2006,06,26,16,50,30.10
2006,06,26,16,51,30.10
2006,06,26,16,52,30.10
2006,06,26,16,53,30.20
2006,06,26,16,54,30.30
2006,06,26,16,55,30.30
2006,06,26,16,56,30.30
2006,06,26,16,57,30.20
2006,06,26,16,58,30.10
2006,06,26,16,59,30.10
2006,06,26,17,00,29.90
2006,06,26,17,01,29.90
2006,06,26,17,02,30.10
2006,06,26,17,03,30.10
2006,06,26,17,04,30.10
2006,06,26,17,05,30.20
2006,06,26,17,06,30.20
2006,06,26,17,07,30.20
2006,06,26,17,08,30.20
2006,06,26,17,09,30.10
2006,06,26,17,10,30.00
2006,06,26,17,11,29.90
2006,06,26,17,12,29.80
2006,06,26,17,13,29.80
2006,06,26,17,14,29.80
2006,06,26,17,15,29.80
2006,06,26,17,16,29.80
2006,06,26,17,17,29.80
2006,06,26,17,18,29.80
2006,06,26,17,19,29.90